EHI
0 0 0 0 0 0 0 0 0 0 0 0 0 0 0 0 0 0 0 0 0 0 0 0 0 0 0 0 0 0 0 0 0 0 0 0 0 0 0 0 0 0 0
0 0 0 0 0 0 0 0 0 0 0 0 0 0 0 0 0 0 0 0 0 0 0 0 0 0 0 0 0 0 0 0 0 0 0 0 0 0 0 0 0 0 0
0 0 0 0 0 0 0 0 0 0 0 0 0 0 0 0 0 0 0 0 0 0 0 0 0 0 0 0 0 0 0 0 0 0 0 0 0 0 0 0 0 0 0
0 0 0 0 0 0 0 0 0 0 0 0 0 0 0 0 0 0 0 0 0 0 0 0 0 0 0 0 0 0 0 0 0 0 0 0 0 0 0 0 0 0 0
0 0 0 0 0 0 0 0 0 0 0 0 0 0 0 0 0 0 0 0 0 0 0 0 0 0 0 0 0 0 0 0 0 0 0 0 0 0 0 0 0 0 0
0 0 0 0 0 0 0 0 0 0 0 0 0 0 0 0 0 0 0 0 0 0 0 0 0 0 0 0 0 0 0 0 0 0 0 0 0 0 0 0 0 0 0
0 0 0 0 0 0 0 0 0 0 0 0 0 0 0 0 0 0 0 0 0 0 0 0 0 0 0 0 0 0 0 0 0 0 0 0 0 0 0 0 0 0 0
0 0 0 0 0 0 0 0 0 0 0 0 0 0 0 0 0 0 0 0 0 0 0 0 0 0 0 0 0 0 0 0 0 0 0 0 0 0 0 0 0 0 0
0 0 0 0 0 0 0 0 0 0 0 0 0 0 0 0 0 0 0 0 0 0 0 0 0 0 0 0 0 0 0 0 0 0 0 0 0 0 0 0 0 0 0
0 0 0 0 0 0 0 0 0 0 0 0 0 0 0 0 0 0 0 0 0 0 0 0 0 0 0 0 0 0 0 0 0 0 0 0 0 0 0 0 0 0 0
0 0 0 0 0 0 0 0 0 0 0 0 0 0 0 0 0 0 0 0 0 0 0 0 0 0 0 0 0 0 0 0 0 0 0 0 0 0 0 0 0 0 0
0 0 0 0 0 0 0 0 0 0 0 0 0 0 0 0 0 0 0 0 0 0 0 0 0 0 0 0 0 0 0 0 0 0 0 0 0 0 0 0 0 0 0
0 0 0 0 0 0 0 0 0 0 0 0 0 0 0 0 0 0 0 0 0 0 0 0 0 0 0 0 0 0 0 0 0 0 0 0 0 0 0 0 0 0 0
0 0 0 0 0 0 0 0 0 0 0 0 0 0 0 0 0 0 0 0 0 0 0 0 0 0 0 0 0 0 0 0 0 0 0 0 0 0 0 0 0 0 0
0 0 0 0 0 0 0 0 0 0 0 0 0 0 0 0 0 0 0 0 0 0 0 0 0 0 0 0 0 0 0 0 0 0 0 0 0 0 0 0 0 0 0
0 0 0 0 0 0 0 0 0 0 0 0 0 0 0 0 0 0 0 0 0 0 0 0 0 0 0 0 0 0 0 0 0 0 0 0 0 0 0 0 0 0 0
0 0 0 0 0 0 0 0 0 0 0 0 0 0 0 0 0 0 0 0 0 0 0 0 0 0 0 0 0 0 0 0 0 0 0 0 0 0 0 0 0 0 0
0 0 0 0 0 0 0 0 0 0 0 0 0 0 0 0 0 0 0 0 0 0 0 0 0 0 0 0 0 0 0 0 0 0 0 0 0 0 0 0 0 0 0
0 0 0 0 0 0 0 0 0 0 0 0 0 0 0 0 0 0 0 0 0 0 0 0 0 0 0 0 0 0 0 0 0 0 0 0 0 0 0 0 0 0 0
0 0 0 0 0 0 0 0 0 0 0 0 0 0 0 0 0 0 0 0 0 0 0 0 0 0 0 0 0 0 0 0 0 0 0 0 0 0 0 0 0 0 0
0 0 0 0 0 0 0 0 0 0 0 0 0 0 0 0 0 0 0 0 0 0 0 0 0 0 0 0 0 0 0 0 0 0 0 0 0 0 0 0 0 0 0
0 0 0 0 0 0 0 0 0 0 0 0 0 0 0 0 0 0 0 0 0 0 0 0 0 0 0 0 0 0 0 0 0 0 0 0 0 0 0 0 0 0 0
0 0 0 0 0 0 0 0 0 0 0 0 0 0 0 0 0 0 0 0 0 0 0 0 0 0 0 0 0 0 0 0 0 0 0 0 0 0 0 0 0 0 0
0 0 0 0 0 0 0 0 0 0 0 0 0 0 0 0 0 0 0 0 0 0 0 0 0 0 0 0 0 0 0 0 0 0 0 0 0 0 0 0 0 0 0
0 0 0 0 0 0 0 0 0 0 0 0 0 0 0 0 0 0 0 0 0 0 0 0 0 0 0 0 0 0 0 0 0 0 0 0 0 0 0 0 0 0 0
0 0 0 0 0 0 0 0 0 0 0 0 0 0 0 0 0 0 0 0 0 0 0 0 0 0 0 0 0 0 0 0 0 0 0 0 0 0 0 0 0 0 0
Wind_Speed
9 8 6 4 3 1 2 3 3 4 5 6 6 7 7 7 7 7 9 9 10 11 11 12 13 13 12 11 12 12 12 11 14 13 13 14 16 16 14 13 13 13 11
9 7 6 3 1 2 3 4 5 5 6 7 7 8 8 8 8 9 11 11 12 13 13 14 14 12 14 13 12 13 12 12 13 15 13 13 16 16 15 15 13 12 11
8 6 4 2 1 2 3 4 5 6 7 8 8 9 9 10 10 10 11 12 13 13 14 14 15 15 15 13 13 13 11 11 11 12 13 12 13 13 14 13 14 10 11
6 5 3 1 1 3 4 5 6 7 8 9 9 10 10 11 11 11 11 13 13 13 14 14 15 15 15 14 12 13 12 12 12 12 12 12 12 13 11 10 10 8 7
5 3 1 1 2 4 5 6 7 8 9 9 9 10 10 9 7 10 12 14 14 14 14 15 15 16 17 15 12 12 12 11 11 11 12 12 12 11 10 8 8 7 7
3 1 1 2 3 4 5 6 7 8 8 8 8 9 9 6 8 10 12 14 14 15 14 14 14 15 15 16 18 19 18 15 14 13 12 13 15 13 10 8 7 7 5
1 1 1 3 4 5 6 6 6 7 7 6 7 7 8 4 4 8 12 15 15 13 13 13 12 12 15 14 15 17 18 20 20 16 15 15 14 12 10 9 7 6 4
1 1 2 4 5 5 5 6 6 5 5 6 6 8 9 6 3 8 15 15 13 13 13 14 14 15 14 14 14 15 15 14 13 10 10 11 11 9 7 6 4 2 2
1 2 4 5 5 5 6 5 5 5 6 6 6 8 9 8 4 9 14 13 11 13 13 14 15 15 14 13 15 15 14 11 7 6 7 8 7 7 5 3 2 3 2
4 5 5 5 6 6 5 5 5 5 6 7 8 8 9 10 8 9 13 10 11 11 12 13 15 14 15 16 14 11 10 7 4 3 3 3 4 4 3 2 2 2 1
5 6 6 6 5 5 5 5 6 6 7 7 8 8 8 9 10 8 11 10 10 11 11 11 10 14 15 16 12 7 5 3 2 2 2 4 4 5 6 6 5 4 3
6 6 6 5 4 5 5 5 6 7 7 7 8 8 7 8 9 11 14 15 15 13 11 10 10 14 14 11 6 3 2 1 1 2 3 4 5 6 6 7 8 8 8
6 6 5 5 5 5 5 6 6 6 7 7 8 8 8 8 8 11 14 16 17 12 10 14 14 13 8 6 10 8 5 3 3 4 5 6 6 6 5 5 6 8 10
5 5 4 4 5 5 5 6 6 7 7 7 8 8 9 9 9 10 11 10 12 11 10 10 10 7 6 6 6 6 5 5 5 6 6 6 5 5 5 5 5 6 7
5 4 4 5 5 4 5 6 7 7 7 7 7 8 8 9 12 17 12 10 10 11 10 6 5 5 5 5 5 5 5 5 6 6 6 6 6 6 6 6 6 7 8
5 5 4 5 5 5 5 4 2 3 2 4 6 8 8 10 15 17 17 17 16 16 9 7 7 6 6 5 5 6 6 6 6 6 6 6 6 6 6 6 7 8 8
7 6 5 6 6 6 6 6 5 2 1 2 5 10 12 14 15 16 17 16 13 13 8 7 7 7 6 5 5 6 6 6 6 6 6 6 6 6 6 7 7 8 9
7 6 6 6 6 6 6 6 6 7 7 7 6 9 13 14 13 15 16 12 10 10 8 8 7 7 6 5 5 5 5 5 5 6 5 5 5 5 6 8 8 10 10
8 7 6 6 6 6 6 6 6 7 7 7 8 9 12 12 10 13 13 10 9 9 9 8 8 7 6 6 5 5 5 5 5 5 5 5 5 6 7 8 10 11 11
7 6 7 6 6 6 6 6 6 6 7 7 7 9 10 9 9 10 9 9 9 9 9 8 8 8 7 6 5 5 4 4 5 5 5 5 6 6 8 9 9 10 10
5 5 1 6 7 7 7 7 7 6 7 6 7 9 13 8 8 10 9 9 9 8 9 8 8 8 7 6 5 6 6 4 4 4 5 5 6 6 7 8 9 10 10
6 6 7 8 7 8 7 7 7 7 7 8 7 8 11 9 8 8 8 9 8 8 8 7 7 7 7 6 6 5 5 5 4 4 5 5 6 6 7 8 8 9 10
6 7 7 7 7 6 7 8 7 7 7 7 8 8 8 8 8 8 9 9 8 8 8 7 7 7 7 6 5 5 5 5 4 4 5 5 6 6 7 8 10 10 10
7 7 8 7 7 7 8 8 8 8 8 8 7 7 7 7 8 9 8 8 8 8 8 7 7 10 12 9 6 6 7 7 6 4 5 5 6 6 7 8 9 11 11
7 7 8 8 8 8 8 8 8 8 8 8 8 8 8 8 9 9 8 8 9 9 10 9 8 9 11 12 10 9 8 8 7 6 3 5 7 8 8 9 8 9 9
8 8 8 7 8 8 8 8 8 8 8 8 8 8 8 8 9 9 9 9 8 8 9 8 11 11 12 10 11 10 9 8 8 8 4 4 7 7 7 8 10 8 8
Wind_Direction
124 116 112 103 86 28 301 296 295 297 295 288 292 292 291 289 286 283 286 291 285 288 291 292 294 297 296 297 295 289 283 277 277 280 281 283 283 283 283 281 279 277 270
120 113 105 96 94 281 287 294 290 288 288 291 292 291 290 289 288 285 286 291 291 293 295 297 298 299 297 295 292 289 286 282 278 281 280 281 281 282 281 280 279 279 278
114 112 114 139 219 280 294 291 290 289 289 290 290 291 292 293 290 288 290 293 295 297 298 299 299 296 293 293 293 289 285 282 278 279 282 283 281 279 281 280 279 278 278
116 119 128 168 266 285 287 285 287 289 289 290 294 296 297 298 298 303 306 304 302 301 300 297 294 292 293 294 291 286 283 283 280 280 280 281 281 282 281 281 284 282 280
109 113 128 223 271 280 286 287 288 288 290 294 297 299 303 304 340 339 319 309 307 303 300 297 294 295 293 289 286 287 286 282 280 279 281 283 282 283 283 286 286 290 281
104 157 186 291 286 288 289 291 294 298 304 311 314 319 321 345 29 350 322 311 306 302 301 301 300 294 291 290 283 281 281 281 283 282 282 280 282 283 285 282 281 276 269
151 228 293 299 303 305 307 312 323 331 338 341 340 336 330 6 30 333 323 310 303 304 304 301 297 295 294 289 289 287 284 279 276 277 279 279 281 282 282 277 267 266 261
181 310 325 322 322 333 343 2 7 4 358 350 342 338 329 346 31 328 324 305 304 304 300 297 294 293 294 296 298 293 287 284 281 281 282 287 288 286 281 277 277 253 216
40 8 7 359 1 17 32 31 19 4 357 341 347 341 334 337 11 330 320 314 308 308 305 302 300 299 300 295 294 290 288 288 280 279 290 298 308 311 294 261 237 233 229
45 40 41 43 44 48 43 25 18 1 356 344 354 344 338 335 340 314 313 315 312 312 308 305 300 298 301 298 294 287 284 290 306 320 330 343 356 10 6 350 323 296 299
69 72 68 67 64 52 39 26 9 3 2 355 352 345 343 338 329 324 318 318 317 310 306 306 308 312 308 305 298 284 273 280 322 357 3 19 26 31 34 34 27 17 20
88 85 74 57 43 48 34 24 18 0 1 2 354 348 347 343 335 336 320 314 314 311 308 311 316 318 322 333 347 35 55 81 80 55 47 40 37 38 40 43 48 50 49
95 85 74 63 48 31 18 24 20 12 5 1 354 349 348 344 342 338 325 320 319 318 317 320 323 332 348 22 41 49 59 67 65 62 54 47 44 45 46 48 57 63 58
91 83 70 51 49 48 22 27 23 14 7 1 355 347 344 342 348 345 336 331 332 332 331 330 336 2 32 43 44 49 50 48 54 58 53 51 51 51 50 49 58 62 63
82 67 54 51 45 42 51 38 22 38 16 352 352 343 341 344 342 333 333 339 341 339 332 342 4 17 36 46 51 53 53 54 55 54 57 54 53 54 55 56 64 67 64
74 56 46 45 39 33 39 74 96 32 4 336 346 346 347 347 335 338 342 341 342 342 350 8 15 22 30 40 52 58 58 53 49 52 58 54 55 57 63 65 66 69 70
58 40 39 35 36 34 28 20 24 38 294 337 6 1 353 345 345 346 346 342 352 357 10 13 15 19 25 34 48 60 62 54 47 51 54 51 50 51 55 62 66 69 71
68 57 31 42 34 31 27 25 24 14 10 8 19 15 354 348 351 354 349 353 9 11 11 10 11 13 21 34 46 60 66 58 50 47 45 47 52 58 60 62 64 71 74
44 39 35 36 35 36 31 32 31 26 18 8 7 7 355 352 2 6 2 11 8 6 6 7 8 10 18 30 44 55 59 56 52 46 40 40 50 64 70 74 76 73 75
75 32 356 27 37 36 34 34 31 26 25 17 14 8 355 1 8 6 8 8 6 4 3 3 5 10 12 19 37 56 60 56 47 40 37 39 52 63 70 72 76 78 79
67 79 349 30 39 33 35 35 35 28 26 21 19 16 359 4 7 5 5 5 3 1 359 359 3 6 9 12 26 48 58 52 42 36 35 40 54 66 71 73 78 83 88
43 41 39 38 42 33 29 41 39 33 29 24 15 16 8 9 7 5 3 0 359 359 357 358 1 3 4 9 15 31 47 46 37 31 34 44 57 65 71 75 79 85 91
39 39 43 41 42 49 42 47 46 40 33 27 23 18 11 7 6 4 1 358 356 359 359 1 4 4 4 8 13 18 27 28 22 21 33 50 62 68 74 78 81 85 87
42 39 43 43 41 42 42 43 43 43 39 32 27 24 16 10 9 7 3 358 358 2 3 3 6 7 11 13 15 26 22 7 359 10 37 63 76 78 81 86 86 89 87
44 41 43 44 39 40 42 44 42 40 38 34 29 27 23 19 17 13 8 3 3 6 9 9 6 7 10 18 20 19 8 3 5 354 30 66 82 85 88 91 92 93 95
47 43 44 47 45 39 39 41 42 40 39 34 31 29 28 26 22 16 11 9 8 8 9 8 9 15 13 13 13 6 1 3 2 349 356 72 80 80 87 93 97 96 95